Tracking 17149 objects as of 22-May-2015
HD Live streaming from Space Station

SL-8 R/B


SL-8 R/B is no longer on orbit
SL-8 R/B is classified as:


NORAD ID: 13888
Int'l Code: 1983-017B
Perigee: N/A
Apogee: N/A
Inclination: N/A
Period: N/A
Semi major axis: N/A
RCS: N/A
Launch date: March 15, 1983
Source: Commonwealth of Independent States (former USSR) (CIS)
Decay date: 1983-03-17

Note: This is a ROCKET BODY
Your satellite tracking list
Your tracking list is empty





NASA's NSSDC Master Catalog

Two Line Element Set (TLE):
1 13888U 83017  B 83076.45407310  .16372392 +06260-5 +08344-4 0  9990
2 13888 050.6914 076.3928 0017518 352.4879 010.6113 16.42515373000256

Source of the keplerian elements: AFSPC

N2YO: 377